ONEWEB-0093, 45444

Orbit data source: Space-Track

ONEWEB-0093, 45444 is a payload satellite owned by One Web (UK) in LEO that was launched on Sat, 21 Mar 2020 UTC via a SOYUZ-2-1B launch vehicle from the Tyuratam Missile And Space Complex (TTMTR). Payload-class satellites include a variety of spacecraft equipped with specific instruments for various scientific and technological missions. These include communications satellites like Starlink; space stations such as the ISS; scientific satellites like the Hubble; Earth observation satellites from companies like Planet Labs, Umbra, and HawkEye 360; GPS; miniature CubeSats for education and research; and military/defense satellites.

Loading next visibility...
Identifier
45444, 2020-020W
Orbit
LEO
Country
Flag of UKUK
Related business
Manufacturer
One Web
Mission
Operational Commercial Communications
Bus & Motor
ARROW, Unknown motor
Mass
148 kg wet, ~140 kg dry
Launch date (UTC)
2020-03-21 (6 years ago)
Launch vehicle
SOYUZ-2-1B
Launch site
Tyuratam Missile And Space Complex (TTMTR)
Object type
Payload
Rocket body
Debris
Shape & HBR
Trap Box + 2 Pan, 6.7 m
Radar Cross Section
3.464 m², Large (>1 m²)

Expand to show TLE details & history
Last TLE update: 9 hours ago

TLE from 9 hours ago
0 ONEWEB-0093
1 45444U 20020W   26035.09205732  .00000493  00000-0  13561-2 0  9993
2 45444  87.8823  47.5362 0001858  80.1616 279.9722 13.11417311285231
Epoch: 2026-02-04T02:12Z
TLE epoch observation values (Epoch: 2026-02-04T02:12:33.752Z)
Latitude
0.00002°
Longitude
-119.86804°
Altitude
1,220.326 km
Speed
7.244 km/s
True Right ascension
03h 10m 08s
True Declination
0° 00' 00"
Sunlit
Object was in daylight at epoch
Visualization orbit readout
Latitude
Unknown
Longitude
Unknown
Altitude
Unknown
Speed
Unknown
Apparent Right ascension
Unknown
Apparent Declination
Unknown
Sunlit
N/A
Visualization observer readout
Local Sidereal Time
12:43:43
Azimuth
Unknown
Elevation
Unknown
Doppler factor
Unknown
Orbital elements
Apogee altitude
1,216.21 km
Perigee altitude
1,213.389 km
Semi-major axis
7,592.937 km
Eccentricity
0.00019
Inclination
87.8823°
RAAN
47.5362°
Arg. of periapsis
80.1616°
True anomaly
279.95123°
Mean anomaly
279.9722°
Eccentric anomaly
279.96171°
Mean motion
3.28041 °/min
Orbital period
109.74 mins
BSTAR
0.0013561
Loading maneuver chart data...
Computing Atmospheric mass density...
Loading historical data...
Loading historical data...
Loading historical data...
Loading historical data...
Loading historical data...
Loading historical data...
Loading historical data...

Documentation

Showing up to 5 results
|